Wetterdaten: Woche 20.11.17 - 26.11.17 (KW47)
Datum Zeit Temp. A. Pool Temp. Feuchte A. Luftdruck Regen Wind Richtung Sonnenschein ET UV Solar Taupunkt Windchill Windben Empfang
20.11.2017 00:00 2,9 C 5,0 C 90 % 1018,6 hPa 0,4 l/m 18,4 km/h (3 Bft) W-SW 0,00 h 0,000 mm 0,0 UV-I 0 W/m 1,4 C -5,0 C 28,1 km/h (4 Bft) 95,74 %
20.11.2017 01:00 2,4 C 5,0 C 93 % 1018,7 hPa 0,0 l/m 17,4 km/h (3 Bft) SW 0,00 h 0,025 mm 0,0 UV-I 0 W/m 1,3 C -5,3 C 25,2 km/h (4 Bft) 98,65 %
20.11.2017 02:00 3,2 C 5,0 C 89 % 1018,8 hPa 0,0 l/m 18,7 km/h (3 Bft) W-SW 0,00 h 0,000 mm 0,0 UV-I 0 W/m 1,5 C -4,9 C 28,4 km/h (4 Bft) 97,53 %
20.11.2017 03:00 3,4 C 5,0 C 87 % 1019,1 hPa 0,0 l/m 19,8 km/h (3 Bft) W-SW 0,00 h 0,026 mm 0,0 UV-I 0 W/m 1,4 C -5,1 C 30,7 km/h (5 Bft) 99,03 %
20.11.2017 04:00 3,5 C 5,0 C 86 % 1019,4 hPa 0,0 l/m 18,2 km/h (3 Bft) W-SW 0,00 h 0,025 mm 0,0 UV-I 0 W/m 1,4 C -4,3 C 27,9 km/h (4 Bft) 95,38 %
20.11.2017 05:00 3,3 C 5,0 C 87 % 1019,9 hPa 0,0 l/m 20,0 km/h (4 Bft) W-SW 0,00 h 0,026 mm 0,0 UV-I 0 W/m 1,3 C -5,3 C 30,8 km/h (5 Bft) 98,80 %
20.11.2017 06:00 3,3 C 5,0 C 87 % 1020,3 hPa 0,0 l/m 21,0 km/h (4 Bft) W-SW 0,00 h 0,025 mm 0,0 UV-I 0 W/m 1,3 C -5,7 C 31,9 km/h (5 Bft) 98,16 %
20.11.2017 07:00 3,3 C 5,0 C 87 % 1020,8 hPa 0,0 l/m 18,4 km/h (3 Bft) W-SW 0,03 h 0,025 mm 0,0 UV-I 9 W/m 1,3 C -4,6 C 28,2 km/h (4 Bft) 98,39 %
20.11.2017 08:00 1,8 C 5,0 C 94 % 1021,2 hPa 0,8 l/m 16,7 km/h (3 Bft) W-SW 0,00 h 0,026 mm 0,0 UV-I 26 W/m 0,9 C -5,7 C 25,5 km/h (4 Bft) 95,93 %
20.11.2017 09:00 2,5 C 5,0 C 92 % 1021,5 hPa 0,0 l/m 16,6 km/h (3 Bft) W-SW 0,00 h 0,025 mm 0,0 UV-I 56 W/m 1,4 C -4,8 C 25,7 km/h (4 Bft) 98,52 %
20.11.2017 10:00 2,9 C 5,0 C 91 % 1021,7 hPa 0,4 l/m 14,3 km/h (3 Bft) W-SW 0,00 h 0,026 mm 0,0 UV-I 86 W/m 1,5 C -2,7 C 22,9 km/h (4 Bft) 98,21 %
20.11.2017 11:00 4,1 C 5,0 C 86 % 1021,4 hPa 0,0 l/m 11,4 km/h (2 Bft) SW 0,10 h 0,050 mm 0,5 UV-I 158 W/m 1,9 C 0,3 C 18,3 km/h (3 Bft) 98,05 %
20.11.2017 12:00 4,7 C 5,0 C 80 % 1020,9 hPa 0,0 l/m 17,4 km/h (3 Bft) W-SW 0,50 h 0,077 mm 0,5 UV-I 210 W/m 1,6 C -2,3 C 26,8 km/h (4 Bft) 96,47 %
20.11.2017 13:00 4,9 C 5,0 C 78 % 1020,3 hPa 0,0 l/m 18,4 km/h (3 Bft) W-SW 0,20 h 0,101 mm 0,5 UV-I 143 W/m 1,4 C -2,6 C 28,4 km/h (4 Bft) 98,69 %
20.11.2017 14:00 4,7 C 5,0 C 78 % 1019,9 hPa 0,0 l/m 16,7 km/h (3 Bft) W-SW 0,00 h 0,102 mm 0,0 UV-I 67 W/m 1,2 C -2,0 C 25,5 km/h (4 Bft) 98,88 %
20.11.2017 15:00 4,1 C 5,0 C 79 % 1020,0 hPa 0,0 l/m 19,0 km/h (3 Bft) W 0,00 h 0,051 mm 0,0 UV-I 20 W/m 0,8 C -3,8 C 31,0 km/h (5 Bft) 97,71 %
20.11.2017 16:00 2,8 C 5,0 C 86 % 1020,3 hPa 0,0 l/m 14,4 km/h (3 Bft) W-SW 0,00 h 0,050 mm 0,0 UV-I 6 W/m 0,7 C -3,1 C 22,1 km/h (4 Bft) 96,88 %
20.11.2017 17:00 1,8 C 5,0 C 92 % 1020,1 hPa 0,0 l/m 11,6 km/h (2 Bft) W 0,00 h 0,026 mm 0,0 UV-I 0 W/m 0,6 C -2,5 C 17,7 km/h (3 Bft) 98,41 %
20.11.2017 18:00 1,2 C 5,0 C 95 % 1019,9 hPa 0,6 l/m 5,9 km/h (2 Bft) SW 0,00 h 0,000 mm 0,0 UV-I 0 W/m 0,5 C 1,0 C 9,2 km/h (2 Bft) 98,82 %
20.11.2017 19:00 1,5 C 5,0 C 96 % 1019,6 hPa 0,4 l/m 7,6 km/h (2 Bft) SW 0,00 h 0,000 mm 0,0 UV-I 0 W/m 0,9 C 0,1 C 12,2 km/h (2 Bft) 96,08 %
20.11.2017 20:00 1,8 C 5,0 C 95 % 1019,2 hPa 0,6 l/m 9,0 km/h (2 Bft) SW 0,00 h 0,000 mm 0,0 UV-I 0 W/m 1,1 C -0,6 C 14,2 km/h (3 Bft) 98,22 %
20.11.2017 21:00 1,9 C 5,0 C 96 % 1018,8 hPa 0,0 l/m 4,1 km/h (1 Bft) SW 0,00 h 0,000 mm 0,0 UV-I 0 W/m 1,3 C 1,8 C 6,5 km/h (2 Bft) 98,38 %
20.11.2017 22:00 2,3 C 5,0 C 96 % 1018,2 hPa 0,4 l/m 8,1 km/h (2 Bft) W-SW 0,00 h 0,000 mm 0,0 UV-I 0 W/m 1,6 C 0,3 C 12,9 km/h (3 Bft) 99,39 %
20.11.2017 23:00 2,4 C 5,0 C 95 % 1017,6 hPa 1,2 l/m 10,6 km/h (2 Bft) W-SW 0,00 h 0,000 mm 0,0 UV-I 0 W/m 1,6 C -1,2 C 16,1 km/h (3 Bft) 95,81 %
21.11.2017 00:00 1,9 C 5,0 C 96 % 1016,9 hPa 1,4 l/m 6,9 km/h (2 Bft) W-SW 0,00 h 0,000 mm 0,0 UV-I 0 W/m 1,3 C 0,9 C 10,8 km/h (2 Bft) 98,37 %
21.11.2017 01:00 2,4 C 5,0 C 97 % 1016,0 hPa 1,0 l/m 8,1 km/h (2 Bft) SW 0,00 h 0,000 mm 0,0 UV-I 0 W/m 2,0 C 0,6 C 12,3 km/h (3 Bft) 98,30 %
21.11.2017 02:00 3,6 C 5,0 C 96 % 1015,5 hPa 0,6 l/m 14,2 km/h (3 Bft) W-SW 0,00 h 0,000 mm 0,0 UV-I 0 W/m 3,0 C -2,1 C 21,4 km/h (4 Bft) 99,74 %
21.11.2017 03:00 4,3 C 5,0 C 96 % 1015,4 hPa 0,6 l/m 12,6 km/h (3 Bft) W-SW 0,00 h 0,000 mm 0,0 UV-I 0 W/m 3,7 C -0,5 C 18,9 km/h (3 Bft) 96,02 %
21.11.2017 04:00 3,4 C 5,0 C 97 % 1015,5 hPa 0,2 l/m 6,3 km/h (2 Bft) W 0,00 h 0,000 mm 0,0 UV-I 0 W/m 3,0 C 1,5 C 10,8 km/h (2 Bft) 98,69 %
21.11.2017 05:00 5,0 C 5,0 C 96 % 1015,4 hPa 0,2 l/m 15,0 km/h (3 Bft) W-SW 0,00 h 0,000 mm 0,0 UV-I 0 W/m 4,5 C -0,8 C 22,1 km/h (4 Bft) 98,37 %
21.11.2017 06:00 5,4 C 5,0 C 96 % 1015,4 hPa 0,6 l/m 15,4 km/h (3 Bft) W-SW 0,00 h 0,000 mm 0,0 UV-I 0 W/m 4,8 C -0,6 C 23,9 km/h (4 Bft) 99,18 %
21.11.2017 07:00 5,7 C 5,0 C 95 % 1015,8 hPa 0,0 l/m 14,9 km/h (3 Bft) W-SW 0,00 h 0,000 mm 0,0 UV-I 7 W/m 5,0 C 0,1 C 23,0 km/h (4 Bft) 96,64 %
21.11.2017 08:00 6,2 C 5,0 C 94 % 1016,4 hPa 0,0 l/m 13,2 km/h (3 Bft) W-SW 0,00 h 0,000 mm 0,0 UV-I 12 W/m 5,2 C 1,5 C 19,4 km/h (3 Bft) 97,96 %
21.11.2017 09:00 6,6 C 5,0 C 92 % 1016,4 hPa 0,0 l/m 17,5 km/h (3 Bft) SW 0,00 h 0,025 mm 0,0 UV-I 36 W/m 5,3 C -0,1 C 26,4 km/h (4 Bft) 98,95 %
21.11.2017 10:00 7,2 C 5,0 C 90 % 1016,6 hPa 0,0 l/m 15,9 km/h (3 Bft) W-SW 0,00 h 0,026 mm 0,0 UV-I 54 W/m 5,6 C 1,3 C 23,8 km/h (4 Bft) 98,85 %
21.11.2017 11:00 7,2 C 5,0 C 90 % 1016,2 hPa 0,2 l/m 12,1 km/h (2 Bft) SW 0,00 h 0,051 mm 0,0 UV-I 35 W/m 5,7 C 3,3 C 18,7 km/h (3 Bft) 97,71 %
21.11.2017 12:00 7,9 C 5,0 C 88 % 1015,9 hPa 0,0 l/m 12,3 km/h (3 Bft) W-SW 0,00 h 0,025 mm 0,0 UV-I 42 W/m 5,9 C 4,0 C 19,5 km/h (3 Bft) 97,03 %
21.11.2017 13:00 7,8 C 5,0 C 88 % 1015,7 hPa 0,8 l/m 14,4 km/h (3 Bft) W-SW 0,00 h 0,025 mm 0,0 UV-I 43 W/m 5,9 C 2,8 C 21,8 km/h (4 Bft) 99,40 %
21.11.2017 14:00 7,5 C 5,0 C 90 % 1015,6 hPa 0,4 l/m 10,8 km/h (2 Bft) W-SW 0,00 h 0,026 mm 0,0 UV-I 31 W/m 6,0 C 4,4 C 15,9 km/h (3 Bft) 97,59 %
21.11.2017 15:00 7,3 C 5,0 C 92 % 1015,7 hPa 0,4 l/m 9,6 km/h (2 Bft) W-SW 0,00 h 0,025 mm 0,0 UV-I 16 W/m 6,1 C 5,0 C 14,9 km/h (3 Bft) 97,91 %
21.11.2017 16:00 7,6 C 5,0 C 92 % 1015,4 hPa 0,0 l/m 15,5 km/h (3 Bft) W-SW 0,00 h 0,026 mm 0,0 UV-I 5 W/m 6,4 C 2,1 C 23,0 km/h (4 Bft) 96,67 %
21.11.2017 17:00 7,5 C 5,0 C 93 % 1015,6 hPa 0,2 l/m 12,4 km/h (3 Bft) W-SW 0,00 h 0,025 mm 0,0 UV-I 0 W/m 6,5 C 3,5 C 18,5 km/h (3 Bft) 99,46 %
21.11.2017 18:00 7,6 C 5,0 C 94 % 1015,5 hPa 0,0 l/m 11,4 km/h (2 Bft) W-SW 0,00 h 0,000 mm 0,0 UV-I 0 W/m 6,6 C 4,1 C 17,1 km/h (3 Bft) 97,86 %
21.11.2017 19:00 7,4 C 5,0 C 95 % 1015,2 hPa 0,0 l/m 7,5 km/h (2 Bft) W 0,00 h 0,000 mm 0,0 UV-I 0 W/m 6,6 C 6,3 C 12,0 km/h (2 Bft) 98,08 %
21.11.2017 20:00 7,0 C 5,0 C 96 % 1015,1 hPa 0,0 l/m 1,6 km/h (1 Bft) W-NW 0,00 h 0,000 mm 0,0 UV-I 0 W/m 6,4 C 7,0 C 2,8 km/h (1 Bft) 96,90 %
21.11.2017 21:00 6,2 C 5,0 C 97 % 1015,0 hPa 0,0 l/m 0,9 km/h (0 Bft) W-NW 0,00 h 0,000 mm 0,0 UV-I 0 W/m 5,7 C 6,2 C 2,6 km/h (1 Bft) 99,48 %
21.11.2017 22:00 5,8 C 5,0 C 97 % 1014,9 hPa 0,0 l/m 0,3 km/h (0 Bft) SW 0,00 h 0,000 mm 0,0 UV-I 0 W/m 5,3 C 5,8 C 1,0 km/h (0 Bft) 98,75 %
21.11.2017 23:00 5,1 C 5,0 C 97 % 1014,8 hPa 0,0 l/m 0,2 km/h (0 Bft) SW 0,00 h 0,000 mm 0,0 UV-I 0 W/m 4,7 C 5,1 C 0,8 km/h (0 Bft) 97,63 %
22.11.2017 00:00 4,6 C 5,0 C 98 % 1014,5 hPa 0,0 l/m 1,9 km/h (1 Bft) SW 0,00 h 0,000 mm 0,0 UV-I 0 W/m 4,3 C 4,6 C 4,1 km/h (1 Bft) 94,72 %
22.11.2017 01:00 4,9 C 5,0 C 97 % 1014,4 hPa 0,0 l/m 3,5 km/h (1 Bft) W-SW 0,00 h 0,000 mm 0,0 UV-I 0 W/m 4,4 C 4,9 C 5,6 km/h (1 Bft) 97,83 %
22.11.2017 02:00 4,6 C 5,0 C 94 % 1014,5 hPa 0,0 l/m 5,4 km/h (1 Bft) SW 0,00 h 0,000 mm 0,0 UV-I 0 W/m 3,7 C 4,3 C 7,5 km/h (2 Bft) 99,64 %
22.11.2017 03:00 4,7 C 5,0 C 92 % 1014,4 hPa 0,0 l/m 2,4 km/h (1 Bft) SW 0,00 h 0,000 mm 0,0 UV-I 0 W/m 3,6 C 4,7 C 3,8 km/h (1 Bft) 98,44 %
22.11.2017 04:00 4,0 C 5,0 C 95 % 1014,3 hPa 0,2 l/m 0,7 km/h (0 Bft) NW 0,00 h 0,000 mm 0,0 UV-I 0 W/m 3,2 C 4,0 C 2,1 km/h (1 Bft) 96,64 %
22.11.2017 05:00 3,9 C 5,0 C 95 % 1014,5 hPa 0,0 l/m 2,2 km/h (1 Bft) NO 0,00 h 0,000 mm 0,0 UV-I 0 W/m 3,1 C 3,9 C 3,6 km/h (1 Bft) 98,83 %
22.11.2017 06:00 2,7 C 5,0 C 96 % 1014,6 hPa 0,0 l/m 1,1 km/h (1 Bft) NO 0,00 h 0,000 mm 0,0 UV-I 0 W/m 2,2 C 2,7 C 2,2 km/h (1 Bft) 97,62 %
22.11.2017 07:00 2,2 C 5,0 C 97 % 1014,7 hPa 0,0 l/m 2,9 km/h (1 Bft) S-SW 0,07 h 0,000 mm 0,0 UV-I 15 W/m 1,8 C 2,2 C 4,7 km/h (1 Bft) 99,34 %
22.11.2017 08:00 3,6 C 5,0 C 96 % 1014,7 hPa 0,0 l/m 2,1 km/h (1 Bft) S-SW 0,50 h 0,000 mm 0,0 UV-I 88 W/m 3,1 C 3,6 C 3,6 km/h (1 Bft) 96,26 %
22.11.2017 09:00 5,9 C 5,0 C 92 % 1014,6 hPa 0,0 l/m 5,4 km/h (1 Bft) SW 1,00 h 0,025 mm 0,5 UV-I 191 W/m 4,7 C 5,9 C 7,7 km/h (2 Bft) 96,69 %
22.11.2017 10:00 8,3 C 5,0 C 85 % 1014,5 hPa 0,0 l/m 4,5 km/h (1 Bft) SW 1,00 h 0,077 mm 0,7 UV-I 270 W/m 6,0 C 8,2 C 7,0 km/h (2 Bft) 96,79 %
22.11.2017 11:00 10,3 C 5,0 C 80 % 1014,5 hPa 0,0 l/m 1,7 km/h (1 Bft) W 1,00 h 0,127 mm 0,9 UV-I 352 W/m 7,1 C 10,3 C 3,8 km/h (1 Bft) 98,78 %
22.11.2017 12:00 10,6 C 5,0 C 83 % 1014,5 hPa 0,0 l/m 4,3 km/h (1 Bft) N-NO 1,00 h 0,177 mm 0,9 UV-I 352 W/m 7,8 C 10,4 C 7,5 km/h (2 Bft) 98,31 %
22.11.2017 13:00 11,0 C 5,0 C 82 % 1014,2 hPa 0,0 l/m 3,5 km/h (1 Bft) NO 1,00 h 0,178 mm 0,6 UV-I 281 W/m 8,0 C 11,0 C 5,2 km/h (1 Bft) 98,24 %
22.11.2017 14:00 11,7 C 5,0 C 77 % 1014,2 hPa 0,0 l/m 0,8 km/h (0 Bft) N 1,00 h 0,127 mm 0,2 UV-I 190 W/m 7,9 C 11,7 C 2,1 km/h (1 Bft) 99,02 %
22.11.2017 15:00 10,6 C 5,0 C 80 % 1014,3 hPa 0,0 l/m 2,8 km/h (1 Bft) O-NO 0,57 h 0,102 mm 0,0 UV-I 62 W/m 7,3 C 10,6 C 4,5 km/h (1 Bft) 97,91 %
22.11.2017 16:00 7,4 C 5,0 C 91 % 1014,2 hPa 0,0 l/m 2,8 km/h (1 Bft) O-NO 0,13 h 0,025 mm 0,0 UV-I 11 W/m 6,1 C 7,4 C 4,9 km/h (1 Bft) 98,65 %
22.11.2017 17:00 6,2 C 5,0 C 94 % 1014,2 hPa 0,0 l/m 1,4 km/h (1 Bft) O 0,00 h 0,000 mm 0,0 UV-I 0 W/m 5,3 C 6,2 C 3,1 km/h (1 Bft) 98,86 %
22.11.2017 18:00 5,2 C 5,0 C 95 % 1014,1 hPa 0,0 l/m 2,2 km/h (1 Bft) SO 0,00 h 0,000 mm 0,0 UV-I 0 W/m 4,5 C 5,2 C 4,1 km/h (1 Bft) 95,67 %
22.11.2017 19:00 4,4 C 5,0 C 96 % 1013,8 hPa 0,0 l/m 1,6 km/h (1 Bft) S-SW 0,00 h 0,000 mm 0,0 UV-I 0 W/m 3,8 C 4,4 C 2,5 km/h (1 Bft) 98,83 %
22.11.2017 20:00 3,4 C 5,0 C 97 % 1013,6 hPa 0,0 l/m 1,9 km/h (1 Bft) S-SW 0,00 h 0,000 mm 0,0 UV-I 0 W/m 2,9 C 3,4 C 3,2 km/h (1 Bft) 99,10 %
22.11.2017 21:00 2,6 C 5,0 C 97 % 1013,5 hPa 0,0 l/m 0,9 km/h (0 Bft) S-SW 0,00 h 0,000 mm 0,0 UV-I 0 W/m 2,2 C 2,6 C 1,8 km/h (1 Bft) 97,52 %
22.11.2017 22:00 2,0 C 5,0 C 97 % 1013,5 hPa 0,0 l/m 0,3 km/h (0 Bft) S-SW 0,00 h 0,000 mm 0,0 UV-I 0 W/m 1,6 C 2,0 C 1,0 km/h (0 Bft) 96,76 %
22.11.2017 23:00 1,4 C 5,0 C 98 % 1013,3 hPa 0,0 l/m 0,9 km/h (0 Bft) S-SW 0,00 h 0,000 mm 0,0 UV-I 0 W/m 1,0 C 1,4 C 1,6 km/h (1 Bft) 98,04 %
23.11.2017 00:00 0,8 C 5,0 C 98 % 1013,1 hPa 0,0 l/m 0,0 km/h (0 Bft) N 0,00 h 0,000 mm 0,0 UV-I 0 W/m 0,5 C 0,8 C 0,0 km/h (0 Bft) 99,22 %
23.11.2017 01:00 0,3 C 5,0 C 98 % 1013,0 hPa 0,2 l/m 0,5 km/h (0 Bft) S-SW 0,00 h 0,000 mm 0,0 UV-I 0 W/m 0,0 C 0,3 C 1,0 km/h (0 Bft) 99,01 %
23.11.2017 02:00 -0,1 C 5,0 C 98 % 1012,7 hPa 0,0 l/m 0,2 km/h (0 Bft) S-SW 0,00 h 0,000 mm 0,0 UV-I 0 W/m -0,4 C -0,1 C 0,4 km/h (0 Bft) 96,50 %
23.11.2017 03:00 -0,6 C 5,0 C 98 % 1012,6 hPa 0,0 l/m 0,6 km/h (0 Bft) S-SW 0,00 h 0,000 mm 0,0 UV-I 0 W/m -0,9 C -0,6 C 1,3 km/h (1 Bft) 98,82 %
23.11.2017 04:00 -0,9 C 5,0 C 98 % 1012,4 hPa 0,0 l/m 0,9 km/h (0 Bft) S-SW 0,00 h 0,000 mm 0,0 UV-I 0 W/m -1,2 C -0,9 C 1,8 km/h (1 Bft) 98,34 %
23.11.2017 05:00 -1,0 C 5,0 C 98 % 1012,2 hPa 0,0 l/m 1,2 km/h (1 Bft) S-SW 0,00 h 0,000 mm 0,0 UV-I 0 W/m -1,3 C -1,0 C 2,2 km/h (1 Bft) 97,46 %
23.11.2017 06:00 -1,3 C 5,0 C 98 % 1012,5 hPa 0,0 l/m 0,2 km/h (0 Bft) S-SW 0,00 h 0,000 mm 0,0 UV-I 0 W/m -1,5 C -1,3 C 0,8 km/h (0 Bft) 97,21 %
23.11.2017 07:00 -1,5 C 5,0 C 98 % 1012,8 hPa 0,0 l/m 0,5 km/h (0 Bft) S-SW 0,07 h 0,000 mm 0,0 UV-I 13 W/m -1,8 C -1,5 C 1,3 km/h (1 Bft) 98,95 %
23.11.2017 08:00 -1,2 C 5,0 C 98 % 1013,2 hPa 0,0 l/m 0,9 km/h (0 Bft) S-SW 0,43 h 0,000 mm 0,0 UV-I 87 W/m -1,5 C -1,2 C 1,7 km/h (1 Bft) 96,16 %
23.11.2017 09:00 0,2 C 5,0 C 98 % 1013,9 hPa 0,0 l/m 1,1 km/h (1 Bft) S-SW 1,00 h 0,025 mm 0,5 UV-I 217 W/m -0,1 C 0,2 C 2,3 km/h (1 Bft) 96,23 %
23.11.2017 10:00 1,6 C 5,0 C 98 % 1014,8 hPa 0,0 l/m 3,8 km/h (1 Bft) SW 1,00 h 0,077 mm 0,7 UV-I 316 W/m 1,4 C 1,6 C 5,8 km/h (2 Bft) 98,35 %
23.11.2017 11:00 3,8 C 5,0 C 98 % 1015,2 hPa 0,0 l/m 3,2 km/h (1 Bft) W-SW 1,00 h 0,101 mm 0,8 UV-I 339 W/m 3,5 C 3,8 C 5,3 km/h (1 Bft) 98,92 %
23.11.2017 12:00 6,6 C 5,0 C 89 % 1015,4 hPa 0,0 l/m 3,1 km/h (1 Bft) W 1,00 h 0,127 mm 0,8 UV-I 339 W/m 4,9 C 6,6 C 5,3 km/h (1 Bft) 98,20 %
23.11.2017 13:00 8,8 C 5,0 C 81 % 1015,1 hPa 0,0 l/m 1,2 km/h (1 Bft) N-NO 1,00 h 0,153 mm 0,6 UV-I 275 W/m 5,7 C 8,8 C 3,0 km/h (1 Bft) 97,04 %
23.11.2017 14:00 8,5 C 5,0 C 82 % 1015,2 hPa 0,0 l/m 4,3 km/h (1 Bft) N-NO 1,00 h 0,127 mm 0,0 UV-I 184 W/m 5,5 C 8,5 C 6,1 km/h (2 Bft) 99,42 %
23.11.2017 15:00 7,3 C 5,0 C 87 % 1015,6 hPa 0,0 l/m 3,8 km/h (1 Bft) NO 0,97 h 0,101 mm 0,0 UV-I 71 W/m 5,4 C 7,3 C 5,4 km/h (1 Bft) 96,93 %
23.11.2017 16:00 5,5 C 5,0 C 92 % 1016,1 hPa 0,2 l/m 3,2 km/h (1 Bft) NO 0,10 h 0,026 mm 0,0 UV-I 10 W/m 4,4 C 5,5 C 5,0 km/h (1 Bft) 97,13 %
23.11.2017 17:00 3,5 C 5,0 C 96 % 1016,4 hPa 0,0 l/m 0,8 km/h (0 Bft) NO 0,00 h 0,000 mm 0,0 UV-I 0 W/m 2,9 C 3,5 C 1,7 km/h (1 Bft) 99,23 %
23.11.2017 18:00 2,9 C 5,0 C 97 % 1016,6 hPa 0,0 l/m 1,6 km/h (1 Bft) NO 0,00 h 0,000 mm 0,0 UV-I 0 W/m 2,4 C 2,9 C 3,3 km/h (1 Bft) 97,31 %
23.11.2017 19:00 1,8 C 5,0 C 97 % 1016,9 hPa 0,0 l/m 3,2 km/h (1 Bft) NO 0,00 h 0,000 mm 0,0 UV-I 0 W/m 1,4 C 1,8 C 4,6 km/h (1 Bft) 97,57 %
23.11.2017 20:00 1,1 C 5,0 C 97 % 1017,4 hPa 0,0 l/m 1,3 km/h (1 Bft) NO 0,00 h 0,000 mm 0,0 UV-I 0 W/m 0,7 C 1,1 C 2,3 km/h (1 Bft) 97,81 %
23.11.2017 21:00 0,9 C 5,0 C 98 % 1017,7 hPa 0,0 l/m 1,3 km/h (1 Bft) NO 0,00 h 0,000 mm 0,0 UV-I 0 W/m 0,6 C 0,9 C 3,4 km/h (1 Bft) 97,18 %
23.11.2017 22:00 1,3 C 5,0 C 98 % 1018,0 hPa 0,0 l/m 1,8 km/h (1 Bft) O-NO 0,00 h 0,000 mm 0,0 UV-I 0 W/m 1,0 C 1,3 C 3,8 km/h (1 Bft) 98,23 %
23.11.2017 23:00 1,1 C 5,0 C 97 % 1018,3 hPa 0,0 l/m 1,5 km/h (1 Bft) O-NO 0,00 h 0,000 mm 0,0 UV-I 0 W/m 0,7 C 1,1 C 2,8 km/h (1 Bft) 95,90 %
24.11.2017 00:00 0,7 C 5,0 C 97 % 1018,3 hPa 0,0 l/m 0,2 km/h (0 Bft) O-NO 0,00 h 0,000 mm 0,0 UV-I 0 W/m 0,3 C 0,7 C 0,6 km/h (0 Bft) 99,17 %
24.11.2017 01:00 1,3 C 5,0 C 98 % 1018,3 hPa 0,0 l/m 0,9 km/h (0 Bft) O-NO 0,00 h 0,000 mm 0,0 UV-I 0 W/m 1,0 C 1,3 C 2,0 km/h (1 Bft) 98,16 %
24.11.2017 02:00 1,3 C 5,0 C 98 % 1018,4 hPa 0,0 l/m 1,3 km/h (1 Bft) N 0,00 h 0,000 mm 0,0 UV-I 0 W/m 0,9 C 1,3 C 2,2 km/h (1 Bft) 98,95 %
24.11.2017 03:00 0,6 C 5,0 C 98 % 1018,4 hPa 0,0 l/m 0,2 km/h (0 Bft) N 0,00 h 0,000 mm 0,0 UV-I 0 W/m 0,3 C 0,6 C 0,5 km/h (0 Bft) 96,29 %
24.11.2017 04:00 0,1 C 5,0 C 98 % 1018,2 hPa 0,0 l/m 1,8 km/h (1 Bft) NW 0,00 h 0,000 mm 0,0 UV-I 0 W/m -0,2 C 0,1 C 3,3 km/h (1 Bft) 99,36 %
24.11.2017 05:00 -0,2 C 5,0 C 98 % 1018,0 hPa 0,0 l/m 0,8 km/h (0 Bft) NW 0,00 h 0,000 mm 0,0 UV-I 0 W/m -0,4 C -0,2 C 1,3 km/h (1 Bft) 97,94 %
24.11.2017 06:00 0,0 C 5,0 C 98 % 1017,8 hPa 0,0 l/m 2,9 km/h (1 Bft) O-NO 0,00 h 0,000 mm 0,0 UV-I 0 W/m -0,3 C 0,0 C 4,3 km/h (1 Bft) 98,20 %
24.11.2017 07:00 -0,6 C 5,0 C 98 % 1018,0 hPa 0,0 l/m 1,8 km/h (1 Bft) N-NO 0,07 h 0,000 mm 0,0 UV-I 12 W/m -0,9 C -0,6 C 3,0 km/h (1 Bft) 97,10 %
24.11.2017 08:00 -0,9 C 5,0 C 98 % 1018,3 hPa 0,0 l/m 0,8 km/h (0 Bft) N-NO 0,83 h 0,000 mm 0,0 UV-I 112 W/m -1,2 C -0,9 C 2,0 km/h (1 Bft) 98,62 %
24.11.2017 09:00 0,8 C 5,0 C 98 % 1017,9 hPa 0,0 l/m 0,7 km/h (0 Bft) N-NO 0,78 h 0,025 mm 0,5 UV-I 196 W/m 0,5 C 0,8 C 2,0 km/h (1 Bft) 98,46 %
24.11.2017 10:00 3,4 C 5,0 C 96 % 1017,7 hPa 0,0 l/m 2,4 km/h (1 Bft) N-NO 1,00 h 0,077 mm 0,6 UV-I 308 W/m 2,8 C 3,4 C 3,9 km/h (1 Bft) 98,81 %
24.11.2017 11:00 4,8 C 5,0 C 92 % 1017,2 hPa 0,0 l/m 3,1 km/h (1 Bft) N-NO 1,00 h 0,127 mm 0,8 UV-I 343 W/m 3,6 C 4,8 C 5,7 km/h (1 Bft) 97,34 %
24.11.2017 12:00 5,8 C 5,0 C 91 % 1016,7 hPa 0,0 l/m 3,3 km/h (1 Bft) NO 0,87 h 0,127 mm 0,7 UV-I 273 W/m 4,4 C 5,7 C 5,5 km/h (1 Bft) 98,34 %
24.11.2017 13:00 6,0 C 5,0 C 90 % 1016,1 hPa 0,0 l/m 3,6 km/h (1 Bft) N 0,57 h 0,101 mm 0,5 UV-I 177 W/m 4,5 C 6,0 C 7,0 km/h (2 Bft) 99,09 %
24.11.2017 14:00 5,8 C 5,0 C 88 % 1015,7 hPa 0,2 l/m 6,1 km/h (2 Bft) O-NO 0,47 h 0,076 mm 0,0 UV-I 127 W/m 4,0 C 5,2 C 9,1 km/h (2 Bft) 98,72 %
24.11.2017 15:00 4,9 C 5,0 C 90 % 1015,7 hPa 0,0 l/m 6,4 km/h (2 Bft) O-NO 0,67 h 0,051 mm 0,0 UV-I 62 W/m 3,5 C 4,2 C 9,0 km/h (2 Bft) 97,71 %
24.11.2017 16:00 3,4 C 5,0 C 94 % 1015,9 hPa 0,0 l/m 4,5 km/h (1 Bft) N-NO 0,08 h 0,026 mm 0,0 UV-I 9 W/m 2,5 C 3,3 C 6,5 km/h (2 Bft) 97,21 %
24.11.2017 17:00 2,0 C 5,0 C 96 % 1016,1 hPa 0,0 l/m 5,7 km/h (1 Bft) NO 0,00 h 0,000 mm 0,0 UV-I 0 W/m 1,5 C 1,4 C 8,5 km/h (2 Bft) 99,35 %
24.11.2017 18:00 1,8 C 5,0 C 97 % 1016,3 hPa 0,0 l/m 2,0 km/h (1 Bft) O-NO 0,00 h 0,000 mm 0,0 UV-I 0 W/m 1,5 C 1,8 C 3,3 km/h (1 Bft) 97,72 %
24.11.2017 19:00 1,8 C 5,0 C 98 % 1016,3 hPa 0,0 l/m 2,5 km/h (1 Bft) SO 0,00 h 0,000 mm 0,0 UV-I 0 W/m 1,6 C 1,8 C 4,5 km/h (1 Bft) 97,40 %
24.11.2017 20:00 1,8 C 5,0 C 98 % 1016,3 hPa 0,0 l/m 1,8 km/h (1 Bft) SO 0,00 h 0,000 mm 0,0 UV-I 0 W/m 1,5 C 1,8 C 3,4 km/h (1 Bft) 96,88 %
24.11.2017 21:00 1,8 C 5,0 C 98 % 1016,2 hPa 0,0 l/m 3,2 km/h (1 Bft) NO 0,00 h 0,000 mm 0,0 UV-I 0 W/m 1,5 C 1,8 C 4,9 km/h (1 Bft) 99,25 %
24.11.2017 22:00 1,6 C 5,0 C 98 % 1016,1 hPa 0,0 l/m 2,7 km/h (1 Bft) O-NO 0,00 h 0,000 mm 0,0 UV-I 0 W/m 1,4 C 1,6 C 4,7 km/h (1 Bft) 97,99 %
24.11.2017 23:00 1,5 C 5,0 C 98 % 1016,2 hPa 0,0 l/m 4,0 km/h (1 Bft) O-NO 0,00 h 0,000 mm 0,0 UV-I 0 W/m 1,2 C 1,5 C 6,3 km/h (2 Bft) 96,90 %
25.11.2017 00:00 1,3 C 5,0 C 98 % 1015,9 hPa 0,0 l/m 4,4 km/h (1 Bft) O-NO 0,00 h 0,000 mm 0,0 UV-I 0 W/m 1,0 C 1,3 C 7,0 km/h (2 Bft) 97,42 %
25.11.2017 01:00 1,2 C 5,0 C 98 % 1015,5 hPa 0,0 l/m 4,8 km/h (1 Bft) NO 0,00 h 0,000 mm 0,0 UV-I 0 W/m 0,9 C 1,0 C 7,3 km/h (2 Bft) 99,37 %
25.11.2017 02:00 1,2 C 5,0 C 98 % 1014,9 hPa 0,0 l/m 6,2 km/h (2 Bft) O-NO 0,00 h 0,000 mm 0,0 UV-I 0 W/m 0,9 C 0,6 C 9,6 km/h (2 Bft) 97,55 %
25.11.2017 03:00 1,2 C 5,0 C 98 % 1014,2 hPa 0,0 l/m 5,9 km/h (2 Bft) O-NO 0,00 h 0,000 mm 0,0 UV-I 0 W/m 0,9 C 0,9 C 9,1 km/h (2 Bft) 96,53 %
25.11.2017 04:00 1,2 C 5,0 C 98 % 1013,2 hPa 0,0 l/m 7,4 km/h (2 Bft) O-NO 0,00 h 0,000 mm 0,0 UV-I 0 W/m 0,9 C -0,5 C 11,5 km/h (2 Bft) 98,13 %
25.11.2017 05:00 1,2 C 5,0 C 99 % 1012,6 hPa 0,0 l/m 6,6 km/h (2 Bft) O-NO 0,00 h 0,000 mm 0,0 UV-I 0 W/m 1,0 C 0,2 C 10,4 km/h (2 Bft) 99,08 %
25.11.2017 06:00 1,2 C 5,0 C 99 % 1011,9 hPa 0,0 l/m 6,2 km/h (2 Bft) O-NO 0,00 h 0,000 mm 0,0 UV-I 0 W/m 1,0 C 0,7 C 10,3 km/h (2 Bft) 97,05 %
25.11.2017 07:00 1,3 C 5,0 C 98 % 1010,7 hPa 0,0 l/m 9,7 km/h (2 Bft) O-NO 0,00 h 0,000 mm 0,0 UV-I 9 W/m 1,1 C -1,7 C 14,8 km/h (3 Bft) 97,48 %
25.11.2017 08:00 1,7 C 5,0 C 98 % 1008,9 hPa 0,0 l/m 13,3 km/h (3 Bft) O-NO 0,00 h 0,000 mm 0,0 UV-I 39 W/m 1,4 C -3,8 C 19,5 km/h (3 Bft) 98,10 %
25.11.2017 09:00 2,0 C 5,0 C 99 % 1007,7 hPa 0,0 l/m 15,7 km/h (3 Bft) O-NO 0,00 h 0,025 mm 0,0 UV-I 70 W/m 1,7 C -4,9 C 22,3 km/h (4 Bft) 98,98 %
25.11.2017 10:00 2,3 C 5,0 C 99 % 1006,8 hPa 0,0 l/m 13,2 km/h (3 Bft) NO 0,00 h 0,026 mm 0,0 UV-I 90 W/m 2,1 C -2,7 C 18,9 km/h (3 Bft) 97,80 %
25.11.2017 11:00 2,5 C 5,0 C 99 % 1006,5 hPa 0,0 l/m 8,1 km/h (2 Bft) NO 0,00 h 0,025 mm 0,0 UV-I 69 W/m 2,3 C 0,7 C 12,5 km/h (3 Bft) 96,88 %
25.11.2017 12:00 2,7 C 5,0 C 99 % 1006,6 hPa 0,0 l/m 3,4 km/h (1 Bft) N-NO 0,00 h 0,026 mm 0,0 UV-I 64 W/m 2,5 C 2,6 C 5,8 km/h (2 Bft) 98,10 %
25.11.2017 13:00 2,9 C 5,0 C 99 % 1008,3 hPa 0,0 l/m 9,7 km/h (2 Bft) W-SW 0,00 h 0,025 mm 0,0 UV-I 84 W/m 2,8 C 0,0 C 14,7 km/h (3 Bft) 99,30 %
25.11.2017 14:00 3,6 C 5,0 C 99 % 1009,9 hPa 0,0 l/m 9,6 km/h (2 Bft) S-SW 0,10 h 0,025 mm 0,0 UV-I 58 W/m 3,5 C 0,9 C 14,8 km/h (3 Bft) 97,67 %
25.11.2017 15:00 5,6 C 5,0 C 99 % 1011,4 hPa 0,2 l/m 15,7 km/h (3 Bft) W-SW 0,00 h 0,026 mm 0,0 UV-I 8 W/m 5,5 C -0,3 C 23,5 km/h (4 Bft) 97,09 %
25.11.2017 16:00 5,8 C 5,0 C 97 % 1012,7 hPa 0,4 l/m 15,9 km/h (3 Bft) W 0,00 h 0,000 mm 0,0 UV-I 5 W/m 5,4 C -0,2 C 24,3 km/h (4 Bft) 97,90 %
25.11.2017 17:00 5,6 C 5,0 C 94 % 1013,5 hPa 0,2 l/m 12,9 km/h (3 Bft) SW 0,00 h 0,000 mm 0,0 UV-I 0 W/m 4,7 C 1,0 C 18,9 km/h (3 Bft) 98,75 %
25.11.2017 18:00 5,5 C 5,0 C 93 % 1014,3 hPa 0,2 l/m 13,2 km/h (3 Bft) W-SW 0,00 h 0,000 mm 0,0 UV-I 0 W/m 4,5 C 0,7 C 20,2 km/h (4 Bft) 99,01 %
25.11.2017 19:00 5,4 C 5,0 C 92 % 1014,8 hPa 0,0 l/m 14,3 km/h (3 Bft) SW 0,00 h 0,000 mm 0,0 UV-I 0 W/m 4,2 C -0,0 C 21,3 km/h (4 Bft) 96,28 %
25.11.2017 20:00 5,2 C 5,0 C 92 % 1015,2 hPa 0,2 l/m 13,1 km/h (3 Bft) W-SW 0,00 h 0,000 mm 0,0 UV-I 0 W/m 4,0 C 0,3 C 19,7 km/h (3 Bft) 99,16 %
25.11.2017 21:00 5,0 C 5,0 C 93 % 1015,6 hPa 0,2 l/m 10,2 km/h (2 Bft) SW 0,00 h 0,000 mm 0,0 UV-I 0 W/m 4,0 C 2,0 C 15,7 km/h (3 Bft) 98,22 %
25.11.2017 22:00 4,8 C 5,0 C 93 % 1015,7 hPa 0,2 l/m 10,9 km/h (2 Bft) SW 0,00 h 0,000 mm 0,0 UV-I 0 W/m 3,7 C 1,4 C 16,8 km/h (3 Bft) 99,37 %
25.11.2017 23:00 4,8 C 5,0 C 92 % 1015,7 hPa 0,0 l/m 9,6 km/h (2 Bft) SW 0,00 h 0,000 mm 0,0 UV-I 0 W/m 3,6 C 2,2 C 14,9 km/h (3 Bft) 94,88 %
26.11.2017 00:00 4,7 C 5,0 C 91 % 1015,9 hPa 0,0 l/m 9,1 km/h (2 Bft) SW 0,00 h 0,000 mm 0,0 UV-I 0 W/m 3,4 C 2,5 C 13,5 km/h (3 Bft) 99,26 %
26.11.2017 01:00 4,7 C 5,0 C 90 % 1016,4 hPa 0,0 l/m 11,9 km/h (2 Bft) W-SW 0,00 h 0,000 mm 0,0 UV-I 0 W/m 3,2 C 0,6 C 17,2 km/h (3 Bft) 97,78 %
26.11.2017 02:00 4,4 C 5,0 C 90 % 1016,9 hPa 0,0 l/m 11,3 km/h (2 Bft) W-SW 0,00 h 0,000 mm 0,0 UV-I 0 W/m 2,9 C 0,5 C 17,1 km/h (3 Bft) 99,28 %
26.11.2017 03:00 4,1 C 5,0 C 90 % 1017,5 hPa 0,0 l/m 12,8 km/h (3 Bft) W 0,00 h 0,000 mm 0,0 UV-I 0 W/m 2,6 C -0,6 C 20,5 km/h (4 Bft) 96,18 %
26.11.2017 04:00 3,4 C 5,0 C 86 % 1018,4 hPa 0,0 l/m 12,1 km/h (2 Bft) W 0,00 h 0,025 mm 0,0 UV-I 0 W/m 1,4 C -1,0 C 20,6 km/h (4 Bft) 99,12 %
26.11.2017 05:00 2,8 C 5,0 C 86 % 1019,4 hPa 0,0 l/m 10,9 km/h (2 Bft) W 0,00 h 0,026 mm 0,0 UV-I 0 W/m 0,7 C -0,9 C 17,6 km/h (3 Bft) 98,41 %
26.11.2017 06:00 2,6 C 5,0 C 86 % 1020,2 hPa 0,0 l/m 13,6 km/h (3 Bft) W 0,00 h 0,025 mm 0,0 UV-I 0 W/m 0,5 C -2,9 C 21,8 km/h (4 Bft) 97,29 %
26.11.2017 07:00 2,4 C 5,0 C 86 % 1021,1 hPa 0,0 l/m 15,0 km/h (3 Bft) W 0,17 h 0,026 mm 0,0 UV-I 15 W/m 0,4 C -4,0 C 24,1 km/h (4 Bft) 97,38 %
26.11.2017 08:00 2,3 C 5,0 C 86 % 1021,7 hPa 0,0 l/m 12,6 km/h (3 Bft) W-SW 0,00 h 0,025 mm 0,0 UV-I 47 W/m 0,3 C -2,5 C 19,2 km/h (3 Bft) 98,41 %
26.11.2017 09:00 2,5 C 5,0 C 86 % 1022,6 hPa 0,0 l/m 12,0 km/h (2 Bft) W-SW 0,00 h 0,025 mm 0,0 UV-I 45 W/m 0,4 C -2,1 C 18,6 km/h (3 Bft) 99,26 %
26.11.2017 10:00 2,5 C 5,0 C 85 % 1023,1 hPa 0,0 l/m 11,8 km/h (2 Bft) W 0,00 h 0,026 mm 0,0 UV-I 92 W/m 0,3 C -1,9 C 18,7 km/h (3 Bft) 97,62 %
26.11.2017 11:00 2,8 C 5,0 C 82 % 1023,2 hPa 0,0 l/m 13,1 km/h (3 Bft) W 0,00 h 0,051 mm 0,5 UV-I 124 W/m -0,0 C -2,3 C 21,1 km/h (4 Bft) 97,10 %
26.11.2017 12:00 3,2 C 5,0 C 77 % 1023,2 hPa 0,0 l/m 14,4 km/h (3 Bft) W-SW 0,10 h 0,076 mm 0,2 UV-I 148 W/m -0,5 C -2,6 C 22,1 km/h (4 Bft) 98,11 %
26.11.2017 13:00 3,0 C 5,0 C 76 % 1023,3 hPa 0,0 l/m 14,6 km/h (3 Bft) W-SW 0,00 h 0,076 mm 0,0 UV-I 102 W/m -0,8 C -2,9 C 22,4 km/h (4 Bft) 98,41 %
26.11.2017 14:00 2,3 C 5,0 C 84 % 1023,4 hPa 0,2 l/m 10,8 km/h (2 Bft) W-SW 0,00 h 0,076 mm 0,0 UV-I 62 W/m -0,1 C -1,5 C 16,3 km/h (3 Bft) 97,51 %
26.11.2017 15:00 2,7 C 5,0 C 81 % 1023,4 hPa 0,0 l/m 14,3 km/h (3 Bft) SW 0,00 h 0,026 mm 0,0 UV-I 25 W/m -0,2 C -3,2 C 21,8 km/h (4 Bft) 97,78 %
26.11.2017 16:00 2,7 C 5,0 C 81 % 1023,6 hPa 0,0 l/m 13,0 km/h (3 Bft) W-SW 0,00 h 0,025 mm 0,0 UV-I 6 W/m -0,2 C -2,5 C 19,6 km/h (3 Bft) 97,74 %
26.11.2017 17:00 2,1 C 5,0 C 83 % 1024,1 hPa 0,0 l/m 13,0 km/h (3 Bft) W-SW 0,00 h 0,025 mm 0,0 UV-I 0 W/m -0,6 C -3,1 C 19,5 km/h (3 Bft) 98,59 %
26.11.2017 18:00 0,5 C 5,0 C 91 % 1024,7 hPa 0,0 l/m 10,6 km/h (2 Bft) SW 0,00 h 0,026 mm 0,0 UV-I 0 W/m -0,7 C -3,2 C 16,5 km/h (3 Bft) 96,18 %
26.11.2017 19:00 0,9 C 5,0 C 90 % 1024,9 hPa 0,0 l/m 12,0 km/h (2 Bft) SW 0,00 h 0,000 mm 0,0 UV-I 0 W/m -0,6 C -4,0 C 18,5 km/h (3 Bft) 98,39 %
26.11.2017 20:00 1,3 C 5,0 C 87 % 1025,0 hPa 0,0 l/m 12,8 km/h (3 Bft) W-SW 0,00 h 0,000 mm 0,0 UV-I 0 W/m -0,7 C -4,0 C 19,6 km/h (3 Bft) 97,57 %
26.11.2017 21:00 1,6 C 5,0 C 85 % 1025,7 hPa 0,0 l/m 10,4 km/h (2 Bft) W-SW 0,00 h 0,025 mm 0,0 UV-I 0 W/m -0,6 C -1,9 C 16,2 km/h (3 Bft) 99,11 %
26.11.2017 22:00 1,4 C 4,5 C 86 % 1025,9 hPa 0,0 l/m 7,3 km/h (2 Bft) W-SW 0,00 h 0,026 mm 0,0 UV-I 0 W/m -0,7 C 0,3 C 11,3 km/h (2 Bft) 96,35 %
26.11.2017 23:00 1,1 C 4,5 C 90 % 1025,8 hPa 0,0 l/m 6,0 km/h (2 Bft) SW 0,00 h 0,000 mm 0,0 UV-I 0 W/m -0,3 C 0,5 C 9,4 km/h (2 Bft) 98,46 %
Min-Datum _ 23.11.17 26.11.17 26.11.17 25.11.17 - 21.11.17 - - - - - 23.11.17 20.11.17 21.11.17 22.11.17
_ Min-Zeit 07:02 21:58 13:20 11:42 - 20:36 - - - - - 07:02 00:36 20:36 00:02
Minimum _ -1,6 C 4,4 C 74 % 1006,3 hPa - 0,0 km/h (0 Bft) - - - - - -1,9 C -8,4 C 0,0 km/h (0 Bft) 10,00 %
Max-Datum _ 22.11.17 20.11.17 25.11.17 26.11.17 21.11.17 20.11.17 - 20.11.17 22.11.17 22.11.17 24.11.17 22.11.17 22.11.17 20.11.17 20.11.17
_ Max-Zeit 14:22 00:00 04:44 21:54 00:00 03:14 - 11:56 13:00 11:54 12:12 14:48 14:22 02:56 01:14
Maximum _ 12,1 C 5,0 C 99 % 1026,0 hPa 1,4 l/m 28,2 km/h
W-SW (4 Bft)
- 0,07 h 0,178 mm 1,0 UV-I 437 W/m 8,5 C 12,1 C 51,5 km/h
W-SW (7 Bft)
100,00 %
Durchschnitt _ 3,5 C 5,0 C 93 % 1016,6 hPa #14,0 l/m 7,7 km/h (2 Bft) W-SW #22:22 h #3,913 mm 0,6 UV-I 107 W/m 2,4 C 1,1 C 11,9 km/h (2 Bft) 97,94 %